STARLINK-5680 (55455 NORAD) Tracking and Keplerian Element Data

This shows tracking and keplerian element data for the satellite.

Feedback or suggestion? Click here.




ElementValue
Catalog55455
NameSTARLINK-5680
Epoch Orbit830
Epoch Day85.25001157
Epoch Year2023
RAAN76.7772
Inclination43.0005
Eccentricity0.0001134
Argument of Perigee273.3319
Mean Anonmoly131.4263
Mean Motion15.48874381
Decay Rate0.00024984
L11 55455U 23015G 23085.25001157 .00024984 00000+0 45695-3 0 9992
L22 55455 43.0005 76.7772 0001134 273.3319 131.4263 15.48874381 8301



Live tracking and technical data element details for STARLINK-5680 (NORAD 55455). STARLINK-5680 can be tracked NOW for your location showing map with azimuth and elevation plus other details from your city location.







IsCatalogInMostPopularTable: catalog: 55455, numindb: -1

Insert: records affected: 1


GetName: 55455 STARLINK-5680

Hit Count: inserted at: Tue, 28 Mar 2023 03:27:05 GMT